{"data":{"norad_id":25416,"epoch":"2026-09-19T10:04:04.775808Z","epoch_age_seconds":105517,"freshness":"FRESH","line1":"1 25416U 98046D   26262.41949972  .00000391  00000+0  17420-3 0  9997","line2":"2 25416  44.9932 164.5597 0001819  14.7774 345.3127 14.38175637470356","mean_motion":14.38175637,"eccentricity":0.0001819,"inclination_deg":44.9932,"raan_deg":164.5597,"arg_perigee_deg":14.7774,"mean_anomaly_deg":345.3127,"bstar":0.0001742,"rev_number":47035,"period_min":100.12685258692,"perigee_km":763.23326663224,"apogee_km":765.83176980297,"semimajor_km":7142.6695182176,"source":"CELESTRAK","updated_at":"2026-09-20T09:00:44.909107Z"}}